Regional Weather Roundup
Issued by NWS

Home | Current Version | Previous Version | Graphics & Text | Print | Product List | Glossary On
Versions: 1 2 3 4 5 6 7 8 9 10 11 12 13 14 15 16 17 18 19 20 21 22 23 24 25 26 27 28
000
ASUS45 KSLC 241710
RWRUT

UTAH REGIONAL WEATHER ROUNDUP
NATIONAL WEATHER SERVICE SALT LAKE CITY UT
1100 AM MDT FRI OCT 24 2014

UTZ001>011-023>025-241800-

NORTHERN UTAH

CITY           SKY/WX    TMP DP  RH WIND       PRES   REMARKS
BRIGHAM CITY   SUNNY     55  37  51 CALM      30.21R
HILL AFB       SUNNY     64  33  31 S8        30.21R
LOGAN          SUNNY     51  37  58 CALM      30.21S
OGDEN          SUNNY     65  33  30 S6        30.19R
PROVO AIRPORT  SUNNY     64  32  29 SE8       30.23S
SALT LAKE CITY SUNNY     64  38  38 CALM      30.18R
VERNAL         SUNNY     55  38  52 CALM      30.31R
WENDOVER       SUNNY     54  36  50 CALM      30.19S
HEBER CITY     SUNNY     61  32  33 NE3       30.25S
WEST JORDAN    SUNNY     66  39  37 S16       30.20R

$$

UTZ012>022-026-027-241800-

SOUTHERN/CENTRAL UTAH

CITY           SKY/WX    TMP DP  RH WIND       PRES   REMARKS
BLANDING       SUNNY     62  32  33 S7        30.45S
BRYCE CANYON   SUNNY     60  34  37 SE6       30.43S
CEDAR CITY     SUNNY     66  33  29 S10       30.29S
DELTA          SUNNY     67  32  26 S15G21    30.22F
HANKSVILLE       N/A     55  32  41 CALM      30.31S
MILFORD        SUNNY     62  34  35 S14       30.25S
MOAB/CYNLANDS  SUNNY     64  36  35 SE8       30.28S
PRICE          SUNNY     58  35  42 CALM      30.33S
ST GEORGE      SUNNY     61  34  36 CALM      30.24S
KANAB            N/A     64  34  32 CALM      30.33F

$$

REGIONAL REPORTS     COLORADO/ARIZONA

CITY           SKY/WX    TMP DP  RH WIND       PRES   REMARKS
CRAIG, CO      SUNNY     61  32  33 NE10      30.33F
GRAND JUNCTION SUNNY     62  36  37 SE7       30.32S
RIFLE          SUNNY     53  35  50 CALM      30.36F
MONTROSE       SUNNY     61  29  29 CALM      30.37F
CORTEZ         SUNNY     62  32  32 CALM      30.38S
PAGE, AZ       SUNNY     65  33  30 NE3       30.29S
GRAND CANYON   SUNNY     67  35  30 VRB3      30.39S
KINGMAN        SUNNY     77  40  26 E8        30.20S
FLAGSTAFF      SUNNY     64  36  35 VRB6      30.42R

$$

REGIONAL REPORTS    NEVADA/IDAHO/WYOMING

CITY           SKY/WX    TMP DP  RH WIND       PRES   REMARKS
LAS VEGAS, NV  SUNNY     74  37  26 CALM      30.10R
ELY            SUNNY     64  29  26 SW13      30.27S
ELKO           SUNNY     51  23  33 CALM      30.18F
POCATELLO, ID  SUNNY     61  39  44 CALM      30.16S
BURLEY         SUNNY     58  41  53 NE6       30.12S
EVANSTON, WY   SUNNY     60  26  27 SW12      30.29R
ROCK SPRINGS   SUNNY     56  32  40 E3        30.29R
KEMMERER       SUNNY     55  27  33 SW6       30.30S

$$



USA.gov is the U.S. government's official web portal to all federal, state and local government web resources and services.